| time (UTC) | temp C | wind direction | speed KPH | gust KPH | rain 1hr cm | rain 24hr cm | rain mn cm | humidity % | barometer mb |
| 20260506231447 | 10 | 89 | 1.6 | 1.6 | 0.00 | 0.94 | 0.94 | 93 | 1012.3 |
| 20260506230944 | 10 | 120 | 0.0 | 4.8 | 0.00 | 0.94 | 0.94 | 93 | 1012.7 |
| 20260506230440 | 10 | 129 | 0.0 | 3.2 | 0.00 | 0.94 | 0.94 | 92 | 1012.4 |
| 20260506225937 | 10 | 106 | 3.2 | 4.8 | 0.00 | 0.94 | 0.94 | 93 | 1012.4 |
| 20260506225435 | 10 | 58 | 1.6 | 4.8 | 0.00 | 0.94 | 0.94 | 93 | 1012.1 |
| 20260506224931 | 10 | 87 | 6.4 | 9.7 | 0.00 | 0.94 | 0.94 | 93 | 1012.0 |
| 20260506224428 | 10 | 104 | 4.8 | 8.0 | 0.00 | 0.94 | 0.94 | 95 | 1011.9 |
| 20260506223925 | 10 | 89 | 0.0 | 6.4 | 0.00 | 0.94 | 0.94 | 95 | 1011.5 |
| 20260506223420 | 10 | 204 | 3.2 | 6.4 | 0.00 | 0.94 | 0.94 | 96 | 1011.5 |
| 20260506222918 | 10 | 99 | 1.6 | 4.8 | 0.00 | 0.94 | 0.94 | 96 | 1011.5 |
| 20260506222414 | 10 | 107 | 3.2 | 4.8 | 0.00 | 0.94 | 0.94 | 96 | 1011.1 |
| 20260506221911 | 10 | 105 | 3.2 | 6.4 | 0.00 | 0.94 | 0.94 | 96 | 1011.1 |
| 20260506221408 | 10 | 120 | 3.2 | 4.8 | 0.00 | 0.94 | 0.94 | 96 | 1011.0 |
| 20260506220906 | 10 | 72 | 4.8 | 8.0 | 0.00 | 0.94 | 0.94 | 95 | 1010.8 |
| 20260506220401 | 10 | 92 | 3.2 | 8.0 | 0.00 | 0.94 | 0.94 | 95 | 1010.6 |
| 20260506215858 | 11 | 100 | 6.4 | 12.9 | 0.00 | 0.94 | 0.94 | 96 | 1010.5 |
| 20260506215354 | 11 | 53 | 4.8 | 6.4 | 0.00 | 0.94 | 0.94 | 95 | 1010.5 |
| 20260506214850 | 11 | 46 | 9.7 | 12.9 | 0.00 | 0.94 | 0.94 | 94 | 1010.3 |
| 20260506214347 | 11 | 66 | 8.0 | 20.9 | 0.00 | 0.94 | 0.94 | 93 | 1010.1 |
| 20260506213845 | 11 | 97 | 9.7 | 24.1 | 0.00 | 0.94 | 0.94 | 94 | 1009.6 |
| 20260506213342 | 11 | 61 | 8.0 | 11.3 | 0.00 | 0.94 | 0.94 | 94 | 1009.8 |
| 20260506212839 | 11 | 92 | 4.8 | 14.5 | 0.00 | 0.94 | 0.94 | 95 | 1009.5 |
| 20260506212336 | 11 | 106 | 3.2 | 11.3 | 0.00 | 0.94 | 0.94 | 96 | 1009.4 |
| 20260506211830 | 11 | 54 | 4.8 | 14.5 | 0.00 | 0.94 | 0.94 | 96 | 1009.1 |
| 20260506211327 | 12 | 357 | 3.2 | 14.5 | 0.00 | 0.94 | 0.94 | 95 | 1009.2 |
| 20260506210824 | 12 | 52 | 4.8 | 20.9 | 0.00 | 0.94 | 0.94 | 95 | 1009.0 |
| 20260506210321 | 12 | 38 | 8.0 | 17.7 | 0.00 | 0.94 | 0.94 | 95 | 1008.9 |
| 20260506205818 | 13 | 58 | 3.2 | 16.1 | 0.00 | 0.94 | 0.94 | 95 | 1008.8 |
| 20260506205314 | 15 | 25 | 6.4 | 14.5 | 0.00 | 0.94 | 0.94 | 97 | 1008.9 |
| 20260506204810 | 15 | 128 | 3.2 | 11.3 | 0.00 | 0.94 | 0.94 | 97 | 1008.6 |
| 20260506204308 | 16 | 28 | 6.4 | 11.3 | 0.00 | 0.94 | 0.94 | 99 | 1008.5 |
| 20260506203806 | 16 | 149 | 4.8 | 9.7 | 0.00 | 0.94 | 0.94 | 98 | 1008.3 |
| 20260506203303 | 16 | 89 | 0.0 | 6.4 | 0.00 | 0.94 | 0.94 | 99 | 1008.1 |
| 20260506202800 | 16 | 89 | 0.0 | 6.4 | 0.00 | 0.94 | 0.94 | 99 | 1008.1 |
| 20260506202257 | 16 | 89 | 3.2 | 12.9 | 0.00 | 0.94 | 0.94 | 99 | 1008.2 |
| 20260506201753 | 16 | 50 | 3.2 | 8.0 | 0.00 | 0.94 | 0.94 | 99 | 1008.3 |
| 20260506201250 | 15 | 75 | 0.0 | 6.4 | 0.00 | 0.94 | 0.94 | 99 | 1008.4 |
| 20260506200747 | 15 | 123 | 0.0 | 8.0 | 0.00 | 0.94 | 0.94 | 99 | 1008.5 |
| 20260506200243 | 15 | 176 | 6.4 | 9.7 | 0.00 | 0.94 | 0.94 | 99 | 1008.4 |
| 20260506195740 | 15 | 104 | 0.0 | 6.4 | 0.00 | 0.94 | 0.94 | 99 | 1008.5 |
| 20260506195236 | 15 | 115 | 0.0 | 9.7 | 0.00 | 0.94 | 0.94 | 99 | 1008.3 |
| 20260506194734 | 15 | 97 | 1.6 | 8.0 | 0.00 | 0.94 | 0.94 | 99 | 1008.6 |
| 20260506194230 | 15 | 197 | 3.2 | 8.0 | 0.00 | 0.94 | 0.94 | 99 | 1008.6 |
| 20260506193728 | 15 | 164 | 3.2 | 6.4 | 0.00 | 0.94 | 0.94 | 99 | 1008.6 |
| 20260506193224 | 15 | 126 | 3.2 | 9.7 | 0.00 | 0.94 | 0.94 | 99 | 1008.5 |
| 20260506192721 | 15 | 207 | 6.4 | 8.0 | 0.00 | 0.94 | 0.94 | 99 | 1008.4 |
| 20260506192218 | 15 | 176 | 3.2 | 8.0 | 0.00 | 0.94 | 0.94 | 99 | 1008.6 |
| 20260506191714 | 15 | 204 | 3.2 | 9.7 | 0.00 | 0.94 | 0.94 | 99 | 1008.8 |
| 20260506191205 | 15 | 207 | 3.2 | 9.7 | 0.00 | 0.94 | 0.94 | 99 | 1008.6 |
| 20260506190703 | 15 | 99 | 1.6 | 4.8 | 0.00 | 0.94 | 0.94 | 99 | 1008.6 |
| 20260506190159 | 15 | 94 | 3.2 | 6.4 | 0.00 | 0.94 | 0.94 | 99 | 1008.6 |
| 20260506185656 | 15 | 167 | 4.8 | 6.4 | 0.00 | 0.94 | 0.94 | 99 | 1008.7 |
| 20260506185152 | 15 | 180 | 3.2 | 12.9 | 0.05 | 0.94 | 0.94 | 99 | 1008.9 |
| 20260506184650 | 15 | 129 | 4.8 | 8.0 | 0.05 | 0.94 | 0.94 | 99 | 1008.9 |
| 20260506184147 | 15 | 116 | 4.8 | 14.5 | 0.00 | 0.94 | 0.94 | 99 | 1009.0 |
| 20260506183644 | 15 | 75 | 0.0 | 4.8 | 0.00 | 0.94 | 0.94 | 99 | 1008.9 |
| 20260506183139 | 15 | 140 | 1.6 | 4.8 | 0.00 | 0.94 | 0.94 | 99 | 1008.9 |
| 20260506182637 | 15 | 182 | 4.8 | 8.0 | 0.00 | 0.94 | 0.94 | 99 | 1009.0 |
| 20260506182134 | 15 | 169 | 1.6 | 9.7 | 0.00 | 0.94 | 0.94 | 99 | 1008.9 |
| 20260506181632 | 15 | 115 | 0.0 | 4.8 | 0.00 | 0.94 | 0.94 | 99 | 1009.0 |
| 20260506181129 | 15 | 194 | 3.2 | 9.7 | 0.00 | 0.94 | 0.94 | 99 | 1009.0 |
| 20260506180626 | 15 | 180 | 0.0 | 6.4 | 0.00 | 0.94 | 0.94 | 99 | 1008.9 |
| 20260506180122 | 15 | 76 | 4.8 | 4.8 | 0.00 | 0.94 | 0.94 | 99 | 1009.0 |
| 20260506175619 | 15 | 105 | 0.0 | 4.8 | 0.00 | 0.94 | 0.94 | 99 | 1009.1 |
| 20260506175114 | 15 | 122 | 1.6 | 4.8 | 0.00 | 0.94 | 0.94 | 99 | 1008.9 |
| 20260506174614 | 15 | 124 | 3.2 | 8.0 | 0.00 | 0.94 | 0.94 | 99 | 1008.8 |
| 20260506174110 | 15 | 64 | 4.8 | 6.4 | 0.05 | 0.94 | 0.94 | 99 | 1009.0 |
| 20260506173608 | 15 | 182 | 3.2 | 6.4 | 0.00 | 0.91 | 0.91 | 99 | 1009.0 |
| 20260506173104 | 15 | 157 | 0.0 | 6.4 | 0.13 | 0.91 | 0.91 | 99 | 1009.0 |
| 20260506172602 | 15 | 108 | 1.6 | 4.8 | 0.18 | 0.91 | 0.91 | 99 | 1009.1 |
| 20260506172057 | 15 | 171 | 1.6 | 9.7 | 0.18 | 0.89 | 0.89 | 99 | 1009.1 |
| 20260506171555 | 15 | 109 | 3.2 | 8.0 | 0.18 | 0.89 | 0.89 | 99 | 1009.3 |
| 20260506171053 | 15 | 236 | 0.0 | 6.4 | 0.18 | 0.86 | 0.86 | 99 | 1009.2 |
| 20260506170550 | 15 | 57 | 1.6 | 6.4 | 0.13 | 0.86 | 0.86 | 99 | 1009.3 |
| 20260506170047 | 15 | 113 | 0.0 | 3.2 | 0.13 | 0.84 | 0.84 | 99 | 1009.2 |
| 20260506165546 | 15 | 89 | 0.0 | 4.8 | 0.18 | 0.84 | 0.84 | 99 | 1009.3 |
| 20260506165042 | 15 | 76 | 0.0 | 3.2 | 0.13 | 0.81 | 0.81 | 99 | 1009.2 |
| 20260506164539 | 15 | 54 | 0.0 | 3.2 | 0.23 | 0.81 | 0.81 | 99 | 1009.2 |
| 20260506164036 | 15 | 166 | 3.2 | 4.8 | 0.23 | 0.79 | 0.79 | 99 | 1009.1 |
| 20260506163532 | 15 | 44 | 0.0 | 3.2 | 0.13 | 0.76 | 0.76 | 99 | 1009.3 |
| 20260506163028 | 15 | 101 | 0.0 | 4.8 | 0.05 | 0.74 | 0.74 | 99 | 1009.1 |
| 20260506162524 | 15 | 180 | 4.8 | 6.4 | 0.05 | 0.74 | 0.74 | 99 | 1009.1 |
| 20260506162021 | 15 | 84 | 0.0 | 4.8 | 0.05 | 0.74 | 0.74 | 99 | 1009.2 |
| 20260506161518 | 15 | 75 | 0.0 | 4.8 | 0.05 | 0.74 | 0.74 | 99 | 1009.1 |
| 20260506161010 | 15 | 129 | 0.0 | 3.2 | 0.13 | 0.74 | 0.74 | 99 | 1009.3 |
| 20260506160508 | 15 | 120 | 1.6 | 6.4 | 0.13 | 0.71 | 0.71 | 99 | 1009.0 |
| 20260506160005 | 15 | 89 | 0.0 | 4.8 | 0.23 | 0.71 | 0.71 | 99 | 1009.4 |
| 20260506155502 | 15 | 70 | 0.0 | 6.4 | 0.30 | 0.71 | 0.71 | 99 | 1009.4 |
| 20260506153634 | 15 | 66 | 0.0 | 4.8 | 0.36 | 0.61 | 0.61 | 99 | 1009.7 |
| 20260506153132 | 15 | 127 | 1.6 | 3.2 | 0.30 | 0.56 | 0.56 | 99 | 1009.6 |
| 20260506152628 | 15 | 25 | 0.0 | 6.4 | 0.23 | 0.53 | 0.53 | 99 | 1009.8 |
| 20260506152126 | 15 | 4 | 0.0 | 3.2 | 0.23 | 0.51 | 0.51 | 99 | 1009.7 |
| 20260506151625 | 15 | 124 | 0.0 | 4.8 | 0.13 | 0.48 | 0.48 | 99 | 1009.6 |
| 20260506151121 | 15 | 114 | 1.6 | 3.2 | 0.13 | 0.48 | 0.48 | 99 | 1009.4 |
| 20260506150618 | 15 | 104 | 3.2 | 4.8 | 0.18 | 0.46 | 0.46 | 99 | 1009.3 |
| 20260506150115 | 15 | 104 | 0.0 | 3.2 | 0.18 | 0.46 | 0.46 | 99 | 1009.5 |
| 20260506145612 | 15 | 74 | 1.6 | 3.2 | 0.13 | 0.43 | 0.43 | 99 | 1009.4 |
| 20260506145109 | 15 | 83 | 0.0 | 4.8 | 0.13 | 0.43 | 0.43 | 99 | 1009.3 |
| 20260506144606 | 15 | 127 | 0.0 | 3.2 | 0.18 | 0.41 | 0.41 | 99 | 1009.4 |
| 20260506144102 | 15 | 109 | 1.6 | 4.8 | 0.13 | 0.38 | 0.38 | 99 | 1009.4 |
| 20260506143601 | 15 | 154 | 0.0 | 4.8 | 0.05 | 0.38 | 0.38 | 99 | 1009.4 |
| 20260506143058 | 15 | 62 | 0.0 | 3.2 | 0.05 | 0.38 | 0.38 | 99 | 1009.5 |
| 20260506142556 | 15 | 142 | 0.0 | 3.2 | 0.18 | 0.38 | 0.38 | 99 | 1009.7 |
| 20260506142054 | 15 | 107 | 1.6 | 4.8 | 0.23 | 0.36 | 0.36 | 98 | 1009.5 |
| 20260506141551 | 15 | 54 | 3.2 | 4.8 | 0.18 | 0.33 | 0.33 | 98 | 1009.6 |
| 20260506141050 | 15 | 32 | 1.6 | 3.2 | 0.18 | 0.30 | 0.30 | 98 | 1009.6 |
| 20260506140547 | 15 | 57 | 0.0 | 4.8 | 0.18 | 0.28 | 0.28 | 98 | 1009.6 |
| 20260506140044 | 15 | 13 | 0.0 | 4.8 | 0.18 | 0.28 | 0.28 | 98 | 1009.8 |
| 20260506135541 | 15 | 57 | 0.0 | 3.2 | 0.30 | 0.25 | 0.25 | 97 | 1009.8 |
| 20260506135037 | 15 | 63 | 0.0 | 3.2 | 0.36 | 0.23 | 0.23 | 97 | 1010.1 |
| 20260506134534 | 15 | 44 | 1.6 | 3.2 | 0.23 | 0.20 | 0.20 | 97 | 1010.1 |
| 20260506134029 | 15 | 64 | 1.6 | 3.2 | 0.18 | 0.18 | 0.18 | 97 | 1010.5 |
| 20260506133527 | 15 | 50 | 1.6 | 3.2 | 0.13 | 0.15 | 0.15 | 97 | 1010.2 |
| 20260506133024 | 15 | 81 | 1.6 | 3.2 | 0.13 | 0.15 | 0.15 | 96 | 1010.3 |
| 20260506132521 | 15 | 67 | 1.6 | 3.2 | 0.18 | 0.15 | 0.15 | 96 | 1010.5 |
| 20260506132018 | 15 | 86 | 0.0 | 3.2 | 0.18 | 0.13 | 0.13 | 95 | 1010.5 |
| 20260506131515 | 15 | 114 | 1.6 | 4.8 | 0.18 | 0.10 | 0.10 | 95 | 1010.5 |
| 20260506131012 | 15 | 63 | 0.0 | 3.2 | 0.18 | 0.10 | 0.10 | 94 | 1010.6 |
| 20260506130508 | 15 | 89 | 0.0 | 6.4 | 0.18 | 0.08 | 0.08 | 94 | 1010.4 |
| 20260506130006 | 15 | 77 | 1.6 | 4.8 | 0.13 | 0.05 | 0.05 | 92 | 1010.5 |
| 20260506125504 | 15 | 47 | 1.6 | 4.8 | 0.05 | 0.05 | 0.05 | 93 | 1010.5 |
| 20260506125001 | 15 | 202 | 0.0 | 4.8 | 0.05 | 0.05 | 0.05 | 92 | 1010.4 |
| 20260506124459 | 15 | 59 | 1.6 | 4.8 | 0.00 | 0.03 | 0.03 | 92 | 1010.2 |
| 20260506123957 | 16 | 128 | 1.6 | 3.2 | 0.05 | 0.03 | 0.03 | 91 | 1010.1 |
| 20260506123455 | 16 | 140 | 1.6 | 4.8 | 0.13 | 0.03 | 0.03 | 90 | 1010.0 |
| 20260506122952 | 16 | 138 | 0.0 | 4.8 | 0.13 | 0.03 | 0.03 | 87 | 1009.8 |
| 20260506122449 | 16 | 81 | 1.6 | 3.2 | 0.05 | 0.00 | 0.00 | 86 | 1009.7 |
| 20260506121947 | 16 | 123 | 1.6 | 4.8 | 0.00 | 0.00 | 0.00 | 85 | 1009.6 |
| 20260506121444 | 16 | 169 | 0.0 | 3.2 | 0.00 | 0.00 | 0.00 | 85 | 1009.6 |
| 20260506120940 | 17 | 199 | 1.6 | 3.2 | 0.00 | 0.00 | 0.00 | 81 | 1009.7 |
| 20260506120438 | 17 | 150 | 0.0 | 4.8 | 0.00 | 0.00 | 0.00 | 81 | 1010.1 |
| 20260506115935 | 17 | 146 | 1.6 | 4.8 | 0.00 | 0.00 | 0.00 | 81 | 1010.0 |
| 20260506115433 | 17 | 113 | 3.2 | 6.4 | 0.00 | 0.00 | 0.00 | 79 | 1010.0 |
| 20260506114931 | 17 | 192 | 0.0 | 3.2 | 0.00 | 0.00 | 0.00 | 80 | 1010.1 |
| 20260506114428 | 16 | 99 | 1.6 | 3.2 | 0.00 | 0.00 | 0.00 | 78 | 1009.8 |
| 20260506113927 | 16 | 81 | 4.8 | 4.8 | 0.00 | 0.00 | 0.00 | 81 | 1009.8 |
| 20260506113424 | 16 | 171 | 0.0 | 4.8 | 0.00 | 0.00 | 0.00 | 81 | 1010.0 |
| 20260506112915 | 16 | 127 | 0.0 | 3.2 | 0.00 | 0.00 | 0.00 | 79 | 1009.6 |
| 20260506112413 | 16 | 75 | 0.0 | 3.2 | 0.00 | 0.00 | 0.00 | 79 | 1009.6 |
| 20260506111910 | 16 | 166 | 1.6 | 6.4 | 0.00 | 0.00 | 0.00 | 78 | 1009.7 |
| 20260506111408 | 16 | 37 | 0.0 | 4.8 | 0.00 | 0.00 | 0.00 | 80 | 1009.5 |
| 20260506110905 | 16 | 55 | 0.0 | 4.8 | 0.00 | 0.00 | 0.00 | 81 | 1009.5 |
| 20260506110402 | 16 | 100 | 4.8 | 4.8 | 0.00 | 0.00 | 0.00 | 81 | 1009.6 |
| 20260506105859 | 15 | 39 | 0.0 | 3.2 | 0.00 | 0.00 | 0.00 | 83 | 1009.7 |
| 20260506105355 | 15 | 178 | 3.2 | 6.4 | 0.00 | 0.00 | 0.00 | 86 | 1009.5 |
| 20260506104853 | 15 | 127 | 0.0 | 3.2 | 0.00 | 0.00 | 0.00 | 88 | 1009.5 |
| 20260506104350 | 15 | 112 | 3.2 | 3.2 | 0.00 | 0.00 | 0.00 | 86 | 1009.3 |
| 20260506103848 | 14 | 134 | 0.0 | 3.2 | 0.00 | 0.00 | 0.00 | 87 | 1009.4 |
| 20260506103345 | 14 | 88 | 3.2 | 4.8 | 0.00 | 0.00 | 0.00 | 88 | 1009.1 |
| 20260506102842 | 13 | 39 | 0.0 | 3.2 | 0.00 | 0.00 | 0.00 | 90 | 1009.0 |
| 20260506102340 | 13 | 76 | 0.0 | 1.6 | 0.00 | 0.00 | 0.00 | 89 | 1009.2 |
| 20260506101837 | 13 | 75 | 0.0 | 4.8 | 0.00 | 0.00 | 0.00 | 88 | 1009.1 |
| 20260506101333 | 13 | 53 | 1.6 | 3.2 | 0.00 | 0.00 | 0.00 | 88 | 1009.4 |
| 20260506100831 | 13 | 49 | 1.6 | 4.8 | 0.00 | 0.00 | 0.00 | 87 | 1008.9 |
| 20260506100329 | 13 | 44 | 0.0 | 3.2 | 0.00 | 0.00 | 0.00 | 88 | 1009.3 |
| 20260506095827 | 13 | 349 | 0.0 | 4.8 | 0.00 | 0.00 | 0.00 | 87 | 1009.3 |
| 20260506095324 | 13 | 60 | 0.0 | 3.2 | 0.00 | 0.00 | 0.00 | 87 | 1009.3 |
| 20260506094821 | 13 | 67 | 3.2 | 3.2 | 0.00 | 0.00 | 0.00 | 87 | 1009.3 |
| 20260506094320 | 13 | 51 | 1.6 | 3.2 | 0.00 | 0.00 | 0.00 | 87 | 1009.4 |
| 20260506093818 | 13 | 75 | 1.6 | 3.2 | 0.00 | 0.00 | 0.00 | 86 | 1009.4 |
| 20260506093314 | 13 | 79 | 1.6 | 3.2 | 0.00 | 0.00 | 0.00 | 87 | 1009.2 |
| 20260506092812 | 13 | 71 | 3.2 | 3.2 | 0.00 | 0.00 | 0.00 | 88 | 1009.4 |
| 20260506092310 | 13 | 70 | 1.6 | 3.2 | 0.00 | 0.00 | 0.00 | 88 | 1009.2 |
| 20260506091807 | 13 | 44 | 0.0 | 3.2 | 0.00 | 0.00 | 0.00 | 89 | 1009.2 |
| 20260506091304 | 13 | 52 | 0.0 | 3.2 | 0.00 | 0.00 | 0.00 | 88 | 1009.4 |
| 20260506090802 | 13 | 354 | 1.6 | 3.2 | 0.00 | 0.00 | 0.00 | 89 | 1009.5 |
| 20260506090259 | 12 | 49 | 3.2 | 4.8 | 0.00 | 0.00 | 0.00 | 90 | 1009.3 |
| 20260506085755 | 12 | 89 | 1.6 | 3.2 | 0.00 | 0.00 | 0.00 | 91 | 1009.6 |
| 20260506085252 | 12 | 48 | 3.2 | 4.8 | 0.00 | 0.00 | 0.00 | 90 | 1009.6 |
| 20260506084748 | 12 | 42 | 1.6 | 3.2 | 0.00 | 0.00 | 0.00 | 91 | 1009.6 |
| 20260506084245 | 12 | 25 | 0.0 | 1.6 | 0.00 | 0.00 | 0.00 | 91 | 1009.5 |
| 20260506083742 | 12 | 78 | 0.0 | 3.2 | 0.00 | 0.00 | 0.00 | 90 | 1009.7 |
| 20260506083240 | 12 | 73 | 0.0 | 3.2 | 0.00 | 0.00 | 0.00 | 90 | 1010.0 |
| 20260506082737 | 12 | 80 | 3.2 | 4.8 | 0.00 | 0.00 | 0.00 | 90 | 1010.1 |
| 20260506082232 | 12 | 115 | 0.0 | 3.2 | 0.00 | 0.00 | 0.00 | 90 | 1009.7 |
| 20260506081730 | 12 | 58 | 1.6 | 3.2 | 0.00 | 0.00 | 0.00 | 90 | 1009.5 |
| 20260506081227 | 12 | 44 | 0.0 | 3.2 | 0.00 | 0.00 | 0.00 | 91 | 1009.7 |
| 20260506080726 | 12 | 47 | 1.6 | 3.2 | 0.00 | 0.00 | 0.00 | 91 | 1009.8 |
| 20260506080221 | 12 | 39 | 3.2 | 3.2 | 0.00 | 0.00 | 0.00 | 91 | 1009.4 |
| 20260506073206 | 12 | 68 | 0.0 | 3.2 | 0.00 | 0.00 | 0.00 | 91 | 1009.7 |
| 20260506072702 | 12 | 66 | 0.0 | 3.2 | 0.00 | 0.00 | 0.00 | 91 | 1009.7 |
| 20260506072200 | 12 | 62 | 1.6 | 3.2 | 0.00 | 0.00 | 0.00 | 91 | 1010.0 |
| 20260506071657 | 12 | 111 | 1.6 | 3.2 | 0.00 | 0.00 | 0.00 | 91 | 1009.8 |
| 20260506071155 | 12 | 42 | 0.0 | 3.2 | 0.00 | 0.00 | 0.00 | 91 | 1009.8 |
| 20260506070652 | 12 | 80 | 1.6 | 3.2 | 0.00 | 0.00 | 0.00 | 91 | 1009.8 |
| 20260506070148 | 12 | 44 | 0.0 | 3.2 | 0.00 | 0.00 | 0.00 | 91 | 1010.0 |
| 20260506062126 | 11 | 51 | 3.2 | 4.8 | 0.00 | 0.00 | 0.00 | 92 | 1010.3 |
| 20260506061621 | 11 | 353 | 0.0 | 3.2 | 0.00 | 0.00 | 0.00 | 92 | 1010.3 |
| 20260506061120 | 11 | 53 | 1.6 | 3.2 | 0.00 | 0.00 | 0.00 | 92 | 1010.3 |
| 20260506060618 | 11 | 44 | 1.6 | 1.6 | 0.00 | 0.00 | 0.00 | 92 | 1010.3 |
| 20260506060114 | 11 | 75 | 0.0 | 1.6 | 0.00 | 0.00 | 0.00 | 92 | 1010.4 |
| 20260506051046 | 12 | 54 | 3.2 | 4.8 | 0.00 | 0.00 | 0.00 | 91 | 1010.8 |
| 20260506050544 | 12 | 112 | 1.6 | 3.2 | 0.00 | 0.00 | 0.00 | 91 | 1010.9 |
| 20260506045035 | 12 | 65 | 0.0 | 3.2 | 0.00 | 0.00 | 0.00 | 90 | 1010.9 |
| 20260506044533 | 12 | 41 | 1.6 | 3.2 | 0.00 | 0.00 | 0.00 | 89 | 1010.8 |
| 20260506044029 | 12 | 28 | 0.0 | 3.2 | 0.00 | 0.00 | 0.00 | 89 | 1010.8 |
| 20260506043526 | 12 | 50 | 1.6 | 1.6 | 0.00 | 0.00 | 0.00 | 89 | 1010.8 |
| 20260506043025 | 12 | 48 | 1.6 | 3.2 | 0.00 | 0.00 | 0.00 | 89 | 1010.9 |
| 20260506042523 | 12 | 37 | 0.0 | 3.2 | 0.00 | 0.00 | 0.00 | 88 | 1010.9 |
| 20260506042021 | 12 | 47 | 1.6 | 3.2 | 0.00 | 0.00 | 0.00 | 89 | 1010.9 |
| 20260506041520 | 13 | 44 | 0.0 | 3.2 | 0.00 | 0.00 | 0.00 | 88 | 1011.1 |
| 20260506041016 | 13 | 33 | 0.0 | 3.2 | 0.00 | 0.00 | 0.00 | 88 | 1010.9 |
| 20260506040514 | 13 | 32 | 0.0 | 3.2 | 0.00 | 0.00 | 0.00 | 87 | 1011.0 |
| 20260506040009 | 13 | 62 | 0.0 | 3.2 | 0.00 | 0.18 | 0.18 | 87 | 1011.1 |
| 20260506035507 | 13 | 50 | 0.0 | 1.6 | 0.00 | 0.18 | 0.18 | 87 | 1010.8 |
| 20260506035003 | 13 | 50 | 0.0 | 3.2 | 0.00 | 0.18 | 0.18 | 87 | 1011.0 |
| 20260506034501 | 13 | 44 | 1.6 | 3.2 | 0.00 | 0.18 | 0.18 | 86 | 1011.1 |
| 20260506033957 | 13 | 62 | 0.0 | 1.6 | 0.00 | 0.18 | 0.18 | 85 | 1011.1 |
| 20260506033455 | 13 | 45 | 0.0 | 3.2 | 0.00 | 0.18 | 0.18 | 85 | 1011.1 |
| 20260506032951 | 13 | 15 | 0.0 | 1.6 | 0.00 | 0.18 | 0.18 | 85 | 1010.9 |
| 20260506032449 | 14 | 55 | 0.0 | 3.2 | 0.00 | 0.18 | 0.18 | 84 | 1010.9 |
| 20260506031945 | 14 | 330 | 0.0 | 1.6 | 0.00 | 0.18 | 0.18 | 84 | 1010.9 |
| 20260506031443 | 14 | 62 | 0.0 | 3.2 | 0.00 | 0.18 | 0.18 | 83 | 1010.9 |
| 20260506030940 | 14 | 55 | 0.0 | 3.2 | 0.00 | 0.18 | 0.18 | 83 | 1011.1 |
| 20260506030438 | 15 | 50 | 0.0 | 1.6 | 0.00 | 0.18 | 0.18 | 83 | 1010.8 |
| 20260506025935 | 15 | 50 | 0.0 | 1.6 | 0.00 | 0.18 | 0.18 | 82 | 1010.9 |
| 20260506025432 | 15 | 62 | 0.0 | 1.6 | 0.00 | 0.18 | 0.18 | 81 | 1010.9 |
| 20260506024928 | 15 | 50 | 0.0 | 3.2 | 0.00 | 0.18 | 0.18 | 79 | 1010.9 |
| 20260506024425 | 15 | 49 | 0.0 | 1.6 | 0.00 | 0.18 | 0.18 | 79 | 1010.8 |
| 20260506023921 | 15 | 32 | 0.0 | 1.6 | 0.00 | 0.18 | 0.18 | 79 | 1010.7 |
| 20260506023418 | 16 | 39 | 1.6 | 1.6 | 0.00 | 0.18 | 0.18 | 76 | 1010.8 |
| 20260506022915 | 16 | 37 | 0.0 | 1.6 | 0.00 | 0.18 | 0.18 | 76 | 1010.9 |
| 20260506022413 | 16 | 69 | 0.0 | 0.0 | 0.00 | 0.18 | 0.18 | 76 | 1010.9 |
| 20260506021910 | 16 | 66 | 0.0 | 0.0 | 0.00 | 0.18 | 0.18 | 78 | 1010.8 |
| 20260506021407 | 16 | 75 | 1.6 | 3.2 | 0.00 | 0.18 | 0.18 | 76 | 1010.9 |
| 20260506020904 | 16 | 13 | 0.0 | 1.6 | 0.00 | 0.18 | 0.18 | 75 | 1011.0 |
| 20260506020402 | 17 | 50 | 0.0 | 1.6 | 0.00 | 0.18 | 0.18 | 75 | 1010.9 |
| 20260506015859 | 17 | 37 | 0.0 | 1.6 | 0.00 | 0.18 | 0.18 | 73 | 1011.0 |
| 20260506015356 | 17 | 103 | 0.0 | 1.6 | 0.00 | 0.18 | 0.18 | 72 | 1010.8 |
| 20260506014853 | 17 | 22 | 0.0 | 0.0 | 0.00 | 0.18 | 0.18 | 71 | 1010.8 |
| 20260506014350 | 17 | 89 | 0.0 | 0.0 | 0.00 | 0.18 | 0.18 | 70 | 1010.9 |
| 20260506013847 | 17 | 80 | 0.0 | 0.0 | 0.00 | 0.18 | 0.18 | 70 | 1010.8 |
| 20260506013344 | 18 | 135 | 0.0 | 1.6 | 0.00 | 0.18 | 0.18 | 70 | 1010.7 |
| 20260506012840 | 17 | 205 | 0.0 | 1.6 | 0.00 | 0.18 | 0.18 | 67 | 1010.8 |
| 20260506012338 | 18 | 50 | 0.0 | 0.0 | 0.00 | 0.18 | 0.18 | 68 | 1010.8 |
| 20260506011835 | 18 | 37 | 0.0 | 1.6 | 0.00 | 0.18 | 0.18 | 68 | 1010.5 |
| 20260506011331 | 18 | 158 | 0.0 | 1.6 | 0.00 | 0.18 | 0.18 | 65 | 1010.5 |
| 20260506010829 | 18 | 44 | 0.0 | 0.0 | 0.00 | 0.18 | 0.18 | 65 | 1010.3 |
| 20260506010327 | 18 | 50 | 0.0 | 0.0 | 0.00 | 0.18 | 0.18 | 64 | 1010.4 |
| 20260506005823 | 18 | 50 | 0.0 | 1.6 | 0.00 | 0.18 | 0.18 | 63 | 1010.3 |
| 20260506005320 | 18 | 37 | 0.0 | 0.0 | 0.00 | 0.18 | 0.18 | 61 | 1010.0 |
| 20260506004816 | 19 | 37 | 0.0 | 0.0 | 0.00 | 0.18 | 0.18 | 62 | 1010.1 |
| 20260506004314 | 19 | 37 | 0.0 | 1.6 | 0.00 | 0.18 | 0.18 | 63 | 1010.0 |
| 20260506003810 | 20 | 172 | 0.0 | 0.0 | 0.00 | 0.18 | 0.18 | 63 | 1010.0 |
| 20260506003306 | 20 | 44 | 0.0 | 0.0 | 0.00 | 0.18 | 0.18 | 63 | 1009.8 |
| 20260506002802 | 20 | 44 | 0.0 | 1.6 | 0.00 | 0.18 | 0.18 | 64 | 1010.0 |
| 20260506002259 | 20 | 217 | 0.0 | 0.0 | 0.00 | 0.18 | 0.18 | 59 | 1009.7 |
| 20260506001755 | 21 | 89 | 0.0 | 3.2 | 0.00 | 0.18 | 0.18 | 54 | 1009.8 |
| 20260506001252 | 21 | 309 | 0.0 | 1.6 | 0.00 | 0.18 | 0.18 | 60 | 1009.6 |
| 20260506000749 | 21 | 148 | 0.0 | 3.2 | 0.00 | 0.18 | 0.18 | 56 | 1009.6 |
| 20260506000247 | 21 | 22 | 0.0 | 3.2 | 0.00 | 0.18 | 0.18 | 55 | 1009.7 |
| 20260505235743 | 21 | 22 | 0.0 | 3.2 | 0.00 | 0.18 | 0.18 | 56 | 1009.6 |
| 20260505235241 | 21 | 172 | 0.0 | 0.0 | 0.00 | 0.18 | 0.18 | 56 | 1009.6 |
| 20260505234738 | 21 | 309 | 0.0 | 1.6 | 0.00 | 0.18 | 0.18 | 58 | 1009.7 |
| 20260505234235 | 21 | 317 | 1.6 | 3.2 | 0.00 | 0.18 | 0.18 | 56 | 1009.4 |
| 20260505233732 | 21 | 195 | 0.0 | 1.6 | 0.00 | 0.18 | 0.18 | 54 | 1009.4 |
| 20260505233230 | 21 | 13 | 0.0 | 3.2 | 0.00 | 0.18 | 0.18 | 58 | 1009.4 |
| 20260505232727 | 22 | 154 | 0.0 | 1.6 | 0.00 | 0.18 | 0.18 | 51 | 1009.4 |
| 20260505232224 | 22 | 197 | 0.0 | 3.2 | 0.00 | 0.18 | 0.18 | 53 | 1009.3 |